sat.trackr.live / text

‹ back to catalog

STARLINK-30372

NORAD 57789 · 2023-134U

PAYLOAD ACTIVE UNKNOWN

§ Identity

Operator
Country
US
Launch date
2023-09-04
Launch site
AFETR
Launch vehicle
Mass (kg)
RCS (m²)

Purposes: comms

External: N2YO · Heavens-Above · Gunter

§ Orbital elements

Epoch: 2026-05-24T21:35:16.895040Z

Period
94.27 min
Inclination
43.0002°
Eccentricity
0.0001305
Mean motion
15.27581898 rev/d
Perigee alt
482.1 km
Apogee alt
483.9 km
Semi-major
6,861.2 km
B*
6.7800e-5
RAAN
7.9822°
Arg perigee
270.0885°
Mean anomaly
89.9818°
Rev number
15,252

§ Raw data

STARLINK-303721 57789U 23134U   26144.89950110  .00001604  00000+0  67800-4 0  99942 57789  43.0002   7.9822 0001305 270.0885  89.9818 15.27581898152526

JSON: /api/v1/satellites/57789 · /tle

For live sub-satellite position, see the globe view (requires WebGL).

§ Visibility from observer

Set your observer location to see the next 7 days of passes ≥ 10°. The values pass through the URL so the page stays shareable.

No JS? Fill the form by hand. The geolocation button needs JavaScript.